Regional Weather Roundup
Issued by NWS Boston, MA

Home | Current Version | Previous Version | Text Only | Print | Product List | Glossary On
Versions: 1 2 3 4 5 6 7 8 9 10 11 12 13 14 15 16 17 18 19 20 21 22 23 24 25 26 27 28 29 30 31 32 33 34 35 36 37 38 39 40 41 42 43 44 45 46 47 48 49
000
ASUS41 KBOX 070510
RWRBOX

REGIONAL WEATHER ROUNDUP
NATIONAL WEATHER SERVICE TAUNTON MA
100 AM EDT TUE JUL 07 2015

NOTE:  "FAIR" INDICATES FEW OR NO CLOUDS BELOW 12,000 FEET WITH NO
SIGNIFICANT WEATHER AND/OR OBSTRUCTIONS TO VISIBILITY.  THE FOLLOWING
OBSERVATION LOCATIONS DO NOT REPORT PRESENT WEATHER...PROVINCETOWN...
SMITHFIELD...BLOCK ISLAND...KEENE...AND OXFORD.

MAZALL-070600-
EASTERN MASSACHUSETTS

CITY           SKY/WX    TMP DP  RH WIND       PRES   REMARKS
BOSTON         PTCLDY    69  63  81 S6        30.12R
BEVERLY        CLEAR     69  63  81 SW5       30.11R
LAWRENCE       CLEAR     70  65  84 SW5       30.12S
BEDFORD        CLEAR     68  64  87 CALM      30.10S
BLUE HILL        N/A     65  63  93 S9        30.12F
NORWOOD        CLEAR     62  62 100 E3        30.11F FOG
MARSHFIELD     CLEAR     66  64  94 CALM      30.14S
PLYMOUTH       CLEAR     63  63 100 CALM      30.13S
TAUNTON        CLEAR     62  60  93 CALM      30.12S
NEW BEDFORD    CLEAR     62  61  96 CALM      30.11F
$$

MAZALL-070600-
CAPE COD AND THE ISLANDS

CITY           SKY/WX    TMP DP  RH WIND       PRES   REMARKS
FALMOUTH       MOCLDY    64  63  94 SE3       30.13S
HYANNIS        CLEAR     68  65  90 CALM      30.12F
CHATHAM        CLEAR     66  64  93 SW3       30.14S
PROVINCETOWN   CLEAR     64   9  11 S7        30.13S
NANTUCKET      CLEAR     64  61  90 SE6       30.13F
MARTHAS VNYRD  CLEAR     65  63  93 S3        30.12F
$$

MAZALL-070600-
CENTRAL AND WESTERN MASSACHUSETTS

CITY           SKY/WX    TMP DP  RH WIND       PRES   REMARKS
WORCESTER      CLEAR     67  62  84 W5        30.13F
FITCHBURG      CLEAR     69  65  86 S3        30.12S
ORANGE         CLEAR     68  65  90 CALM      30.11S
SPRINGFIELD    PTCLDY    68  64  85 S6        30.09F
WESTFIELD      MOCLDY    68  64  87 CALM      30.10S
NORTH ADAMS    CLEAR     64  62  93 CALM      30.10R
PITTSFIELD     MOCLDY    68  63  84 SE6       30.10F
$$

RIZALL-070600-
RHODE ISLAND

CITY           SKY/WX    TMP DP  RH WIND       PRES   REMARKS
PROVIDENCE     CLEAR     67  63  87 CALM      30.12F
NEWPORT        CLEAR     66  64  93 CALM      30.12F
BLOCK ISLAND   CLEAR     70  66  88 S5        30.11S
SMITHFIELD     CLEAR     64  57  77 S3        30.12F
WESTERLY       PTCLDY    66  64  93 N3        30.12S
$$

CTZALL-070600-
CONNECTICUT

CITY           SKY/WX    TMP DP  RH WIND       PRES   REMARKS
BRADLEY INTL   MOCLDY    70  63  78 S6        30.09F
HARTFORD       CLOUDY    70  64  81 S6        30.10S
BRIDGEPORT     MOCLDY    72  66  81 CALM      30.10S
DANBURY        PTCLDY    71  62  73 S5        30.12S
GROTON         MOCLDY    68  65  90 NE3       30.10S
NEW HAVEN      CLOUDY    70  67  90 CALM      30.11S
CHESTER        NOT AVBL
MERIDEN        CLOUDY    70  65  84 CALM      30.10S
WILLIMANTIC    CLEAR     66  63  90 CALM      30.12S
OXFORD         CLOUDY    70  61  73 S3        30.13S
$$

MEZ002-015-021-024-NHZ003-005-008-011-012-014-VTZ005-008-070600-
NORTHERN NEW ENGLAND

CITY           SKY/WX    TMP DP  RH WIND       PRES   REMARKS
PORTLAND ME    CLEAR     62  59  90 CALM      30.10F
BANGOR ME      PTCLDY    63  58  83 S5        30.10F
CONCORD NH     CLEAR     65  61  87 CALM      30.10S
MANCHESTER NH  CLEAR     70  64  81 S3        30.09S
NASHUA NH      CLEAR     68  66  93 CALM      30.11F
PORTSMOUTH NH  CLEAR     65  63  91 NW1       30.09S
JAFFREY NH     CLEAR     64  62  93 CALM      30.14S
KEENE NH       CLEAR     64  61  88 CALM      30.11S
BURLINGTON VT  CLEAR     68  59  73 SE3       30.03F
MT. WASHINGTON FOG       50  50 100 SW31        N/A  VSB 0
$$

NYZ052-076-070600-
EASTERN NEW YORK

CITY           SKY/WX    TMP DP  RH WIND       PRES   REMARKS
ALBANY         PTCLDY    73  64  73 S9        30.06S
NEW YORK CITY  CLOUDY    75  69  81 S8        30.08S
$$

ANZALL-070600-
MARINE OBSERVATIONS

STATION/POSITION TIME  TEMP    WIND        PRES    VSBY  WAVE
                       AIR SEA DIR/SP/G                  HT/PER
                 (UTC) (F)     (DEG/KT/KT) (MB)    (MI)  (FT/S)
BOSTON BUOY      0450   65 64  190/  6/  8 1020.1R         1/ 8
BUZZARDS BAY     0400          150/  9/  9 1020.7F
NANTUCKET SOUND  0450   69 68  160/  6/  8 1020.1F         0
MASS BAY-STELLWA 0404   67 65  180/  8/ 10 1018.8R  1 7/8  2/ 6
ISLE OF SHOALS   0500   68     200/ 10/ 11 1018.8F
S OF BLOCK IS    0408      67                N/A           2/ 7
$$

......................KEY.........................
  SKY/WX - SKY CONDITION/PRESENT WEATHER
  TMP    - TEMPERATURE IN FAHRENHEIT
  DWPT   - DEWPOINT IN FAHRENHEIT
  RH     - RELATIVE HUMIDITY IN PERCENT
  WIND   - DIRECTION AND SPEED IN MPH
  PRES   - MEAN SEA LEVEL PRESSURE IN INCHES OF HG
  WCI    - WIND CHILL INDEX
  VSB    - VISIBILITY IN MILES
  HX     - HEAT INDEX
  TC     - TEMPERATURE IN CELSIUS
  VRB    - VARIABLE WIND DIRECTION
  N/A    - NOT AVAILABLE



USA.gov is the U.S. government's official web portal to all federal, state and local government web resources and services.